Current weather by "City, St" or "zip code"  
 
Advertise Here

Current Conditions: Alexander City, Thomas C Russell Field Airport, AL

Fair


66.0 F

Last Updated on May 30 2020, 1:55 am CDT
Humidity: 98%
Wind Speed: N 0.0 mph
Barometer 30.05 in
Dewpoint: 65.5 F
Visibility: 10.00 mi
Precip: --
Heat Index: NA
Wind Chill: NA
Current conditions at:

Alexander City, Thomas C Russell Field Airport, AL (KALX)

Lat: 32.91472 Lon: 85.96278

Local Radar Image active severe weather and emergency alerts image image weather storm and storm spotter reports image weather observation monitoring service image
Local
Radar
Active
Alerts
Storm Reports Obs
Monitoring

Sign-up For Email & Text Message Weather Alert Notification Services


Advertise Here

Observation History for Alexander City, Thomas C Russell Field Airport, AL


Time Wind
(mph)
Vis
(mi)
Weather Precip (in) Temperature (F) Relative
Humidity
Wind
Chill
(F)
Heat
Index
(F)
Pressure
Air Dwpt altimeter
(in)
sea level
(mb)
Rmks
1:55 am CDT N 0.0 10.00 Fair -- 66.0 65.5 98% NA NA 30.05 M
12:55 am CDT N 0.0 10.00 Fair -- 67.0 66.6 98% NA NA 30.06 M
11:55 pm CDT N 0.0 10.00 Fair -- 69.0 67.3 96% NA NA 30.06 M
10:55 pm CDT N 0.0 10.00 Fair -- 70.0 68.2 95% NA NA 30.06 M
9:55 pm CDT N 0.0 10.00 Fair -- 73.0 70.7 94% NA NA 30.05 M
8:55 pm CDT N 0.0 10.00 Partly Cloudy -- 73.0 70.0 91% NA NA 30.04 M
7:55 pm CDT N 0.0 10.00 Fair -- 78.0 69.8 76% NA NA 30.03 M
6:55 pm CDT N 0.0 10.00 Partly Cloudy -- 83.0 66.9 59% NA 86 30.01 M
5:55 pm CDT W 5.8 10.00 Fair -- 84.0 65.1 54% NA 86 30.01 M
4:55 pm CDT W 4.6 10.00 Fair -- 84.0 64.8 53% NA 86 30.01 M
3:55 pm CDT N 0.0 10.00 Fair -- 84.0 65.1 53% NA 86 30.01 M
2:55 pm CDT S 3.5 10.00 Partly Cloudy -- 82.0 67.8 62% NA 85 30.02 M
1:55 pm CDT W 5.8 10.00 Partly Cloudy -- 82.0 67.6 63% NA 85 30.02 M
12:55 pm CDT N 0.0 10.00 Mostly Cloudy -- 81.0 68.2 66% NA 84 30.04 M
11:55 am CDT NW 3.5 10.00 Mostly Cloudy -- 79.0 69.3 72% NA NA 30.06 M
10:55 am CDT N 0.0 10.00 Mostly Cloudy -- 79.0 69.4 73% NA NA 30.07 M
9:55 am CDT N 0.0 10.00 Fair -- 77.0 70.3 81% NA NA 30.06 M
8:55 am CDT SW 4.6 10.00 Fair -- 74.0 70.7 91% NA NA 30.08 M
7:55 am CDT SW 3.5 10.00 Fair -- 71.0 70.0 98% NA NA 30.07 M
6:55 am CDT N 0.0 7.00 Partly Cloudy -- 69.0 68.5 99% NA NA 30.05 M
5:55 am CDT N 0.0 0.50 Fog -- 67.0 66.7 99% NA NA 30.05 M
4:55 am CDT N 0.0 7.00 Mostly Cloudy -- 66.0 66.2 99% NA NA 30.03 M
3:55 am CDT N 0.0 7.00 Fair -- 67.0 66.4 98% NA NA 30.02 M
2:55 am CDT N 0.0 7.00 Fair -- 67.0 67.1 99% NA NA 30.02 M

Regional Weather Observation


Alexander City, Thomas C Russell Field Airport, AL (KALX)

Fair
66.0 F

Anniston Metro Airport, AL (KANB)

Fog/Mist
66.0 F

Birmingham, Birmingham International Airport, AL (KBHM)

Fair
68.0 F

Gadsden, Gadsden Municipal Airport, AL (KGAD)

Fair
65.0 F

Maxwell Air Force Base / Montgomery, AL (KMXF)

Fair
70.0 F

Montgomery, Dannelly Field, AL (KMGM)

Mostly Cloudy
73.0 F